INMARSAT GX5

Last updated on Jan. 23, 2021, 7:16 a.m. UTC

1 44801U 19080B   21022.85701539  .00000087  00000-0  00000-0 0  9995
2 44801   0.0849  81.1815 0002288 226.7846 133.9421  1.00271049  4336
UTC
Height (km)
Latitude
Longitude
Inclination
Orbital Period
UTC large
Height (km)
Speed (km/s)
/
Latitude / Longitude
Inclination (degrees)
Orbital Period (minutes)
Azimuth
Elevation
Range (km)
Doppler Factor
iOS Compass Heading
iOS Angle

Next 30 passes for location: Hong Kong

Rise time Rise Azimuth (degrees) Set time Set Azimuth (degrees) Duration Max altitude (degrees)

No matching passes for this satellites